Weather reports worldwide

Advertisment
Le Talut, France (7207): temperature & dewpoint: 12.10.2018 19:00:00 - 18.10.2018 19:00:00 (CEST)Le Talut, France (7207): wind speed & gusts: 12.10.2018 19:00:00 - 18.10.2018 19:00:00 (CEST)Le Talut, France (7207): wind direction: 12.10.2018 19:00:00 - 18.10.2018 19:00:00 (CEST)Le Talut, France (7207): reduced air pressure: 12.10.2018 19:00:00 - 18.10.2018 19:00:00 (CEST)Le Talut, France (7207): visibility: 12.10.2018 19:00:00 - 18.10.2018 19:00:00 (CEST)Le Talut, France (7207): precipitation: 12.10.2018 19:00:00 - 18.10.2018 19:00:00 (CEST)
Date & Time tt [°C] td [°C] ff [km/h] ff [kn] fx [km/h] fx [kn] dd ppp [hPa] vv [km] rr [mm]
18.10.2018 19:00:00 - - - - - - - - - -
18.10.2018 18:00:00 19,1 12,1 27 14 49 26 NNE 1019,6 - 0,0
18.10.2018 17:00:00 20,0 12,2 30 16 47 26 NNE 1019,5 16 0,0
18.10.2018 16:00:00 19,8 11,6 29 16 47 26 NE 1019,8 - 0,0
18.10.2018 15:00:00 18,5 11,8 29 15 44 24 NE 1020,1 - 0,0
18.10.2018 14:00:00 17,4 12,1 28 15 50 27 NE 1020,6 - 0,0
18.10.2018 13:00:00 16,8 12,5 33 18 52 28 NE 1020,9 - 0,0
18.10.2018 12:00:00 16,1 12,8 34 18 55 30 NNE 1021,3 - 0,0
18.10.2018 11:00:00 15,6 12,7 34 19 53 29 NNE 1021,1 - 0,0
18.10.2018 10:00:00 15,1 13,0 35 19 50 27 NNE 1020,5 - 0,0
18.10.2018 09:00:00 14,8 12,8 36 19 49 26 NNE 1020,1 - 0,0
18.10.2018 08:00:00 14,7 12,9 34 19 48 26 NNE 1019,3 - 0,0
18.10.2018 07:00:00 14,6 12,8 34 18 47 25 NNE 1019,3 - 0,0
18.10.2018 06:00:00 14,3 12,7 29 16 42 23 NNE 1019,0 - 0,0
18.10.2018 05:00:00 13,6 12,3 26 14 40 22 NNE 1019,0 - 0,0
18.10.2018 04:00:00 12,8 11,7 24 13 34 18 N 1019,2 - 0,0
18.10.2018 03:00:00 12,8 11,5 21 11 29 16 N 1019,2 - 0,0
18.10.2018 02:00:00 12,8 11,4 19 10 27 15 NNE 1019,4 - 0,0
18.10.2018 01:00:00 12,7 11,1 18 10 24 13 NNE 1019,6 - 0,0
18.10.2018 00:00:00 12,6 11,3 15 8 22 12 NE 1019,5 - 0,0
17.10.2018 23:00:00 12,3 11,0 13 7 22 12 N 1019,7 - 0,0
17.10.2018 22:00:00 12,5 10,6 16 9 21 12 N 1019,6 - 0,0
17.10.2018 21:00:00 12,9 10,3 16 8 19 11 N 1019,2 - 0,0
17.10.2018 20:00:00 12,8 11,0 12 7 14 8 N 1018,8 - 0,0
17.10.2018 19:00:00 14,3 11,6 4 2 8 4 NNE 1018,2 - 0,0
17.10.2018 18:00:00 15,6 12,9 4 2 14 8 ESE 1017,8 - 0,0
17.10.2018 17:00:00 16,6 13,5 6 3 18 10 ESE 1017,8 - 0,0
17.10.2018 16:00:00 16,2 13,3 12 6 21 11 SE 1017,8 - 0,0
17.10.2018 15:00:00 15,8 12,5 11 6 20 11 SE 1018,0 - 0,0
17.10.2018 14:00:00 15,8 12,7 16 9 23 12 SE 1018,3 20 0,0
17.10.2018 13:00:00 15,6 12,5 18 10 23 12 SSE 1018,8 - 0,0
17.10.2018 12:00:00 15,9 12,5 16 8 20 11 SSE 1018,9 - 0,0
17.10.2018 11:00:00 17,0 12,9 13 7 21 11 S 1018,9 - 0,0
17.10.2018 10:00:00 15,7 12,4 12 7 19 10 S 1018,9 - 0,0
17.10.2018 09:00:00 15,0 11,9 14 8 21 11 S 1018,7 - 0,0
17.10.2018 08:00:00 14,8 11,6 15 8 20 11 S 1018,8 20 0,0
17.10.2018 07:00:00 14,6 11,6 15 8 19 10 S 1018,9 - 0,0
17.10.2018 06:00:00 14,4 11,5 11 6 18 10 SSW 1018,9 - 0,0
17.10.2018 05:00:00 14,3 11,4 11 6 17 9 SSW 1018,9 - 0,0
17.10.2018 04:00:00 14,3 11,3 12 6 18 10 SW 1019,3 - 0,0
17.10.2018 03:00:00 13,4 11,5 7 4 12 7 SSE 1019,6 - 0,0
17.10.2018 02:00:00 13,4 11,8 6 4 9 5 SSW 1020,0 - 0,0
17.10.2018 01:00:00 12,5 11,1 6 3 8 4 SE 1020,1 - 0,0
17.10.2018 00:00:00 12,4 10,5 4 2 6 3 SSE 1020,2 - 0,0
16.10.2018 23:00:00 12,7 10,1 4 2 6 3 SW 1020,3 - 0,0
16.10.2018 22:00:00 13,1 9,9 5 3 9 5 WSW 1020,3 - 0,0
16.10.2018 21:00:00 13,8 10,2 6 3 10 6 WSW 1020,1 - 0,0
16.10.2018 20:00:00 13,9 10,1 8 4 12 7 W 1020,0 25 0,0
16.10.2018 19:00:00 14,4 10,8 6 3 13 7 WSW 1019,5 - 0,0
16.10.2018 18:00:00 15,5 10,7 7 4 15 8 WSW 1019,3 - 0,0
16.10.2018 17:00:00 16,2 10,7 9 5 18 10 WSW 1019,2 12 0,0
16.10.2018 16:00:00 16,2 10,9 8 5 15 8 WSW 1019,0 - 0,0
16.10.2018 15:00:00 16,5 10,6 9 5 14 8 SW 1018,7 - 0,0
16.10.2018 14:00:00 16,6 10,9 7 4 15 8 W 1018,8 12 0,0
16.10.2018 13:00:00 16,8 11,3 9 5 15 8 W 1018,6 - 0,0
16.10.2018 12:00:00 15,7 11,5 8 4 24 13 WNW 1018,3 - 0,0
16.10.2018 11:00:00 14,2 11,9 19 10 26 14 NW 1018,0 12 0,0
16.10.2018 10:00:00 13,7 12,3 13 7 22 12 NW 1017,3 - 0,0
16.10.2018 09:00:00 13,5 12,2 12 7 22 12 NW 1016,5 - 0,0
16.10.2018 08:00:00 13,7 12,4 9 5 23 12 W 1015,9 12 0,0
16.10.2018 07:00:00 13,7 12,8 15 8 24 13 W 1015,2 - 0,0
16.10.2018 06:00:00 13,6 12,8 11 6 21 11 W 1014,8 - 0,0
16.10.2018 05:00:00 13,6 12,8 13 7 27 14 W 1014,5 - 0,0
16.10.2018 04:00:00 13,0 12,4 8 5 13 7 WSW 1014,1 - 0,0
16.10.2018 03:00:00 12,2 11,3 10 6 14 8 N 1014,0 - 0,0
16.10.2018 02:00:00 13,5 12,6 9 5 19 10 N 1013,6 - 0,0
16.10.2018 01:00:00 14,4 13,4 6 4 26 14 WNW 1013,6 - 0,0
16.10.2018 00:00:00 13,9 12,8 12 7 18 10 W 1013,3 - 0,0
15.10.2018 23:00:00 13,8 12,5 10 5 14 8 W 1012,8 - 0,0
15.10.2018 22:00:00 14,1 12,8 6 3 10 5 WNW 1012,5 - 0,0
15.10.2018 21:00:00 13,7 11,9 3 2 14 7 N 1012,0 - 0,0
15.10.2018 20:00:00 14,1 12,1 8 4 13 7 WNW 1011,6 18 0,0
15.10.2018 19:00:00 14,2 11,4 9 5 21 11 WNW 1010,9 - 0,0
15.10.2018 18:00:00 15,8 12,0 10 5 16 9 W 1010,4 - 0,0
15.10.2018 17:00:00 13,9 11,1 9 5 22 12 W 1010,2 18 0,0
15.10.2018 16:00:00 15,7 11,5 12 7 21 11 WNW 1010,1 - 0,0
15.10.2018 15:00:00 14,5 11,1 13 7 26 14 WNW 1010,2 - 0,0
15.10.2018 14:00:00 14,3 11,1 10 6 26 14 WNW 1010,1 18 0,0
15.10.2018 13:00:00 14,1 11,1 12 6 26 14 NW 1009,9 - 0,0
15.10.2018 12:00:00 13,7 11,0 15 8 24 13 NW 1009,4 - 0,0
15.10.2018 11:00:00 13,8 11,7 13 7 22 12 NNW 1008,9 15 0,0
15.10.2018 10:00:00 13,3 11,7 14 8 24 13 NNW 1008,1 - 0,0
15.10.2018 09:00:00 12,5 11,1 12 7 23 13 NW 1007,7 - 0,0
15.10.2018 08:00:00 13,0 11,6 13 7 27 15 WNW 1007,4 12 0,0
15.10.2018 07:00:00 13,0 11,7 11 6 29 16 WNW 1007,3 - 0,0
15.10.2018 06:00:00 12,8 11,7 15 8 32 17 NW 1006,8 - 0,0
15.10.2018 05:00:00 12,9 12,1 16 9 31 17 WNW 1006,7 - 0,0
15.10.2018 04:00:00 12,8 12,2 18 10 35 19 WNW 1006,7 - 0,2
15.10.2018 03:00:00 12,8 12,3 18 10 39 21 WNW 1006,7 - 0,4
15.10.2018 02:00:00 12,9 12,3 20 11 45 25 WNW 1006,4 - 0,0
15.10.2018 01:00:00 12,7 12,2 23 12 49 27 WNW 1005,8 - 0,4
15.10.2018 00:00:00 12,9 12,3 23 13 48 26 WNW 1005,7 - 0,0
14.10.2018 23:00:00 12,6 12,0 31 17 45 24 NW 1005,5 - 0,2
14.10.2018 22:00:00 12,6 12,0 35 19 51 28 NW 1005,7 - 0,2
14.10.2018 21:00:00 12,6 12,1 40 21 55 30 NW 1005,2 - 0,6
14.10.2018 20:00:00 12,6 12,1 40 21 61 33 NNW 1005,0 4,0 0,6
14.10.2018 19:00:00 12,4 11,8 37 20 57 31 NNW 1004,2 - 0,2
14.10.2018 18:00:00 12,6 12,0 29 16 51 27 NNW 1004,1 - 0,0
14.10.2018 17:00:00 12,6 12,0 32 17 49 27 NNW 1003,4 10 0,2
14.10.2018 16:00:00 13,0 12,2 29 15 53 28 N 1003,3 - 0,2
14.10.2018 15:00:00 13,3 12,7 30 16 51 28 N 1003,0 - 0,2
14.10.2018 14:00:00 13,6 12,7 34 18 57 31 N 1003,0 - 0,2
14.10.2018 13:00:00 14,4 13,4 31 17 61 33 NNE 1002,7 - 0,0
14.10.2018 12:00:00 14,3 13,7 35 19 57 31 N 1002,0 10 0,0
14.10.2018 11:00:00 14,1 13,6 32 17 56 30 N 1001,7 - 0,0
14.10.2018 10:00:00 14,0 13,4 33 18 49 26 NNW 1001,9 - 0,4
14.10.2018 09:00:00 14,8 14,2 18 10 38 21 N 1001,0 - 0,2
14.10.2018 08:00:00 14,4 13,4 21 11 34 19 N 1001,0 - 0,6
14.10.2018 07:00:00 16,7 15,1 18 10 42 23 ESE 1001,1 - 0,0
14.10.2018 06:00:00 17,3 15,3 22 12 42 23 E 1001,2 - 0,0
14.10.2018 05:00:00 15,9 15,3 22 12 39 21 ENE 1002,2 - 0,0
14.10.2018 04:00:00 15,7 15,1 21 12 35 19 NNE 1003,4 - 0,8
14.10.2018 03:00:00 15,5 14,5 9 5 25 14 N 1005,4 - 0,0
14.10.2018 02:00:00 15,5 14,5 16 9 32 18 N 1006,0 - 0,0
14.10.2018 01:00:00 15,4 14,3 17 9 29 16 N 1006,9 - 0,0
14.10.2018 00:00:00 15,9 14,6 15 8 24 13 N 1007,9 - 0,2
13.10.2018 23:00:00 16,9 15,6 7 4 14 8 SW 1009,0 - 0,0
13.10.2018 22:00:00 16,4 15,4 11 6 26 14 SE 1009,6 - 0,0
13.10.2018 21:00:00 16,5 15,5 18 10 33 18 E 1008,7 - 0,0
13.10.2018 20:00:00 16,5 15,5 16 9 29 15 ESE 1009,9 - 0,0
13.10.2018 19:00:00 16,8 15,7 17 9 30 16 SE 1010,0 - 0,0
13.10.2018 18:00:00 17,5 15,3 16 9 27 15 SE 1010,1 - 0,0
13.10.2018 17:00:00 17,5 15,3 20 11 33 18 SSE 1010,3 - 0,0
13.10.2018 16:00:00 17,8 15,6 24 13 40 22 S 1010,5 - 0,0
13.10.2018 15:00:00 18,1 15,9 29 16 44 24 S 1010,8 - 0,0
13.10.2018 14:00:00 17,8 15,4 31 17 46 25 SSE 1011,3 10 0,0
13.10.2018 13:00:00 18,3 16,1 30 16 41 22 S 1011,8 - 0,0
13.10.2018 12:00:00 17,1 15,8 32 17 46 25 SSE 1012,4 - 0,0
13.10.2018 11:00:00 16,7 15,7 35 19 46 25 SSE 1012,5 10 0,0
13.10.2018 10:00:00 16,7 15,7 39 21 54 29 SSE 1012,2 - 0,0
13.10.2018 09:00:00 16,6 15,6 37 20 50 27 SSE 1012,0 - 0,0
13.10.2018 08:00:00 16,6 15,5 36 20 47 26 SE 1011,8 - 0,0
13.10.2018 07:00:00 16,4 14,9 31 17 47 25 SE 1012,0 - 0,0
13.10.2018 06:00:00 16,9 14,7 35 19 49 26 SSE 1012,3 - 0,0
13.10.2018 05:00:00 16,9 14,0 27 15 44 24 SSE 1012,6 - 0,0
13.10.2018 04:00:00 17,6 13,7 32 17 42 23 S 1013,1 - 0,0
13.10.2018 03:00:00 17,6 13,7 26 14 41 22 S 1013,9 - 0,0
13.10.2018 02:00:00 17,6 14,1 29 16 47 25 S 1014,2 - 0,0
13.10.2018 01:00:00 17,3 14,0 36 20 46 25 SSE 1014,5 - 0,0
13.10.2018 00:00:00 17,1 14,4 34 19 45 24 SSE 1015,0 - 0,0
12.10.2018 23:00:00 17,1 14,6 36 19 46 25 SSE 1015,2 - 0,0
12.10.2018 22:00:00 16,7 14,5 30 16 37 20 SSE 1015,5 - 0,0
12.10.2018 21:00:00 16,6 14,4 24 13 33 18 SSE 1015,5 - 0,0
12.10.2018 20:00:00 17,0 14,5 23 12 35 19 S 1015,5 15 0,0
12.10.2018 19:00:00 17,0 15,2 27 14 40 22 S 1015,2 - 0,0

tt = temperature
td = dewpoint
ff = wind speed
fx = gusts
dd = wind direction
ppp = reduced air pressure
vv = visibility
rr = precipitation

Next stations